Change the Weather History Date:

Sunday, November 11, 2012

  Actual Average Record
Temperature  
Mean Temperature 70 °F -  
Max Temperature 80 °F 77 °F 88 °F (1972)
Min Temperature 61 °F 62 °F 44 °F (1956)
Cooling Degree Days 6    
Growing Degree Days 20 (Base 50)    
Moisture  
Dew Point 59 °F    
Average Humidity 72    
Maximum Humidity 87    
Minimum Humidity 48    
Precipitation  
Precipitation 0.00 in - - ()
Sea Level Pressure  
Sea Level Pressure 30.25 in    
Wind  
Wind Speed 7 mph (ENE)    
Max Wind Speed 10 mph    
Max Gust Speed -    
Visibility 10 miles    
Events      
Averages and records for this station are not official NWS values.
T = Trace of Precipitation, MM = Missing Value Source: NWS Daily Summary

Daily Weather History Graph

Daily Weather History Graph

Search for Another Location

Airport or City:

Trip Planner

Search our weather history database for the weather conditions in past years. The results will help you decide how hot, cold, wet, or windy it might be!

Date:

Astronomy

Nov. 11, 2012 Rise Set
Actual Time 6:49 AM EST 5:39 PM EST
Civil Twilight 6:24 AM EST 6:04 PM EST
Nautical Twilight 5:56 AM EST 6:32 PM EST
Astronomical Twilight 5:28 AM EST 7:00 PM EST
Moon 4:12 AM EST (11/11) 3:54 PM EST (11/11)
Length of Visible Light 11h 39m
Length of Day
10h 50m
Waning Crescent, 7% of the Moon is Illuminated
Nov 11
Waning Crescent
Nov 13
New
Nov 20
First Quarter
Nov 28
Full
Dec 6
Last Quarter

Hourly Weather History & Observations

Time (EST) Temp. Heat Index Dew Point Humidity Pressure Visibility Wind Dir Wind Speed Gust Speed Precip Events Conditions
12:53 AM 64.0 °F - 55.9 °F 75% 30.26 in 10.0 mi ENE 6.9 mph - N/A   Scattered Clouds
1:53 AM 63.0 °F - 55.9 °F 78% 30.25 in 10.0 mi ENE 5.8 mph - N/A   Clear
2:53 AM 62.1 °F - 55.9 °F 80% 30.25 in 10.0 mi ENE 5.8 mph - N/A   Clear
3:53 AM 62.1 °F - 55.9 °F 80% 30.24 in 10.0 mi ENE 5.8 mph - N/A   Clear
4:53 AM 61.0 °F - 55.9 °F 83% 30.25 in 10.0 mi NE 6.9 mph - N/A   Clear
5:53 AM 61.0 °F - 57.0 °F 87% 30.25 in 10.0 mi NE 8.1 mph - N/A   Clear
6:53 AM 61.0 °F - 57.0 °F 87% 30.26 in 10.0 mi ENE 6.9 mph - N/A   Clear
7:53 AM 64.0 °F - 57.9 °F 80% 30.28 in 10.0 mi NE 5.8 mph - N/A   Clear
8:53 AM 66.2 °F - 57.2 °F 73% 30.29 in 10.0 mi NE 6.9 mph - N/A   Clear
9:53 AM 69.1 °F - 59.0 °F 70% 30.30 in 10.0 mi East 5.8 mph - N/A   Clear
10:53 AM 73.9 °F - 57.9 °F 57% 30.29 in 10.0 mi East 5.8 mph - N/A   Clear
11:53 AM 77.0 °F - 62.1 °F 60% 30.27 in 10.0 mi ENE 8.1 mph - N/A   Scattered Clouds
12:53 PM 77.0 °F - 59.0 °F 54% 30.24 in 10.0 mi East 8.1 mph - N/A   Scattered Clouds
1:53 PM 80.1 °F 80.7 °F 59.0 °F 48% 30.22 in 10.0 mi East 8.1 mph - N/A   Scattered Clouds
2:53 PM 79.0 °F - 59.0 °F 50% 30.21 in 10.0 mi ESE 10.4 mph - N/A   Scattered Clouds
3:53 PM 75.0 °F - 60.1 °F 60% 30.22 in 10.0 mi ESE 9.2 mph - N/A   Overcast
4:53 PM 75.0 °F - 62.1 °F 64% 30.21 in 10.0 mi East 5.8 mph - N/A   Scattered Clouds
5:53 PM 73.0 °F - 61.0 °F 66% 30.22 in 10.0 mi East 5.8 mph - N/A   Clear
6:53 PM 70.0 °F - 63.0 °F 78% 30.24 in 10.0 mi ENE 5.8 mph - N/A   Clear
7:53 PM 70.0 °F - 61.0 °F 73% 30.25 in 10.0 mi ENE 8.1 mph - N/A   Clear
8:53 PM 70.0 °F - 61.0 °F 73% 30.25 in 10.0 mi East 8.1 mph - N/A   Clear
9:53 PM 68.0 °F - 62.1 °F 81% 30.25 in 10.0 mi East 6.9 mph - N/A   Clear
10:53 PM 68.0 °F - 61.0 °F 78% 30.24 in 10.0 mi East 8.1 mph - N/A   Clear
11:53 PM 66.9 °F - 62.1 °F 84% 30.23 in 10.0 mi East 4.6 mph - N/A   Clear